x

9414750 - Alameda, Ca (aamc1) Weather Station

9:30pm - Fri 29th Jul 2016 All times are PDT. -7 hours from GMT.

  • Wind
    6mph, 9mph gusts
  • Sea Temp 69°f
  • Air Temp 58°f
  • Sea Pressure 1010mb
  • 9414750 - Alameda, Ca
  • 9414750 - Alameda, Ca

More Historic Weather Station data

Upgrade to MSW Pro to gain access to the past 30 days of data for over 8000 Wavebouys and Weather Stations around the globe.

Join Pro

Comparision Forecast

View Surf forecast
   
Fri 07/29 9:30pm 6 9 mph 1010mb 69f 58f
9:24pm 7 9 mph 1009.9mb 69f 58f
9:18pm 7 9 mph 1009.8mb 69f 58f
9:12pm 7 10 mph 1009.8mb 69f 58f
9:06pm 7 9 mph 1009.7mb 69f 58f
9:00pm 7 10 mph 1009.7mb 69f 58f
8:54pm 8 10 mph 1009.7mb 69f 58f
8:48pm 8 10 mph 1009.6mb 69f 58f
8:42pm 8 10 mph 1009.6mb 69f 58f
8:36pm 8 10 mph 1009.7mb 69f 58f
8:30pm  -  mph 1009.7mb - -
8:24pm  -  mph 1009.6mb - -
8:18pm 8 10 mph - 69f -
8:12pm 8 11 mph - 69f -
8:06pm 7 11 mph - 69f -
8:00pm  -  mph 1009.4mb 69f -
7:54pm  -  mph 1009.4mb 69f -
7:48pm 8 11 mph 1009.4mb 69f -
7:42pm 8 10 mph 1009.3mb 70f -
7:36pm 8 10 mph 1009.3mb 70f -
7:30pm 8 10 mph 1009.3mb 70f -
7:24pm 8 10 mph 1009.3mb 70f -
7:18pm 8 11 mph 1009.2mb 70f -
7:12pm 8 11 mph 1009.2mb 70f -
7:06pm 9 13 mph 1009.2mb 70f -
7:00pm 9 13 mph 1009.2mb 71f 62f
6:54pm 9 13 mph 1009.2mb 71f 62f
6:48pm 9 13 mph 1009.2mb 71f -
6:42pm 10 13 mph 1009.1mb 71f -
6:36pm 9 13 mph 1009.1mb 71f -
6:30pm 9 13 mph 1009.1mb 71f -
6:24pm 9 11 mph 1009.1mb 71f -
6:18pm 8 11 mph - 71f -
6:12pm 8 10 mph - 71f -
6:06pm 9 11 mph - 71f -
6:00pm  -  mph 1009.2mb 71f -
5:54pm  -  mph 1009.2mb 71f -
5:48pm 9 13 mph 1009.2mb 71f -
5:42pm 10 13 mph 1009.3mb 71f -
5:36pm 8 13 mph 1009.3mb 71f -
5:30pm 9 13 mph 1009.3mb 71f -
5:24pm 8 11 mph 1009.4mb 71f -
5:18pm 8 10 mph - 71f 66f
5:12pm 7 9 mph - 71f 66f
5:06pm 8 10 mph - 71f 65f
5:00pm  -  mph - 71f -
4:54pm  -  mph - 70f -
4:48pm  -  mph - 70f -
4:42pm  -  mph - 70f -
4:36pm  -  mph - 70f -
4:30pm  -  mph - 70f -
4:24pm  -  mph - 70f -
4:18pm  -  mph - 70f -
4:12pm  -  mph - 70f -
4:06pm  -  mph - 70f -
4:00pm  -  mph - 70f -
3:54pm  -  mph - 70f -
3:48pm  -  mph - 70f -
3:42pm  -  mph - 70f -
3:36pm  -  mph - 70f -
3:30pm  -  mph - 70f -
3:24pm  -  mph - 70f -
3:18pm  -  mph 1010mb 70f -
3:12pm  -  mph 1010.1mb 70f -
3:06pm  -  mph 1010.1mb 70f -
3:00pm  -  mph 1010.3mb 70f 67f
2:54pm  -  mph 1010.3mb 70f 67f
2:48pm 8 10 mph 1010.4mb 70f 66f
2:42pm 8 10 mph 1010.4mb 70f 67f
2:36pm 7 9 mph 1010.4mb 70f 67f
2:30pm 7 11 mph 1010.5mb 70f 67f
2:24pm 8 10 mph 1010.5mb 69f 67f
2:18pm 7 10 mph 1010.6mb 69f 67f
2:12pm 8 11 mph 1010.6mb 69f 67f
2:06pm 8 10 mph 1010.7mb 69f 67f
2:00pm 7 10 mph 1010.7mb 69f 66f
1:54pm 8 11 mph 1010.9mb 69f 66f
1:48pm 9 13 mph 1010.9mb 69f 66f
1:42pm 8 11 mph 1010.9mb 69f 67f
1:36pm 9 11 mph 1011mb 69f 66f
1:30pm 7 10 mph 1011mb 69f 66f
1:24pm 7 10 mph 1011mb 69f 66f
1:18pm 8 11 mph 1011.1mb 69f 66f
1:12pm 9 11 mph 1011.2mb 69f 66f
1:06pm 7 11 mph 1011.2mb 69f 66f
1:00pm 7 9 mph 1011.2mb 68f 66f
12:54pm 7 9 mph 1011.3mb 68f 66f
12:48pm 6 9 mph 1011.4mb 68f 66f
12:42pm 7 10 mph 1011.4mb 68f 65f
12:36pm 7 9 mph 1011.4mb 68f 65f
12:30pm 6 10 mph 1011.4mb 68f 65f
12:24pm 6 9 mph 1011.5mb 68f 65f
12:18pm 6 10 mph 1011.5mb 68f 65f
12:12pm 6 9 mph 1011.5mb 68f 65f
12:06pm 6 9 mph 1011.6mb 68f 65f
12:00pm 8 10 mph 1011.6mb 68f 64f
11:54am 7 9 mph 1011.6mb 68f 64f
11:48am 6 9 mph 1011.6mb 68f 64f
11:42am 5 8 mph 1011.7mb 68f 64f
11:36am 6 8 mph 1011.7mb 68f 63f
11:30am 6 8 mph 1011.7mb 68f 63f
11:24am 5 7 mph 1011.7mb 68f 63f
11:18am 5 6 mph 1011.7mb 68f 63f
11:12am 5 7 mph 1011.8mb 68f 63f
11:06am 3 7 mph 1011.8mb 68f 62f
11:00am 5 6 mph 1011.8mb 68f 62f
10:54am 5 7 mph 1011.8mb 68f 62f
10:48am 3 7 mph 1011.9mb 68f 62f
10:42am  -  mph 1011.9mb 68f -
10:36am 6 7 mph 1011.9mb 68f 61f
10:30am 6 8 mph 1011.9mb 68f 60f
10:24am 6 7 mph 1011.8mb 68f 60f
10:18am 5 8 mph 1011.8mb 68f 60f
10:12am 6 8 mph 1011.9mb 68f 60f
10:06am 5 7 mph 1011.9mb 68f 60f
10:00am 5 7 mph 1011.8mb 68f 59f
9:54am 5 7 mph 1011.9mb 68f 59f
9:48am 6 8 mph 1011.9mb 68f 59f
9:42am 5 7 mph 1012mb 68f 59f
9:36am 3 7 mph 1012mb 68f 59f
9:30am 6 7 mph 1012.1mb 68f 58f
9:24am 5 7 mph 1012.1mb 68f 58f
9:18am 6 7 mph 1012.1mb 69f 58f
9:12am 3 7 mph 1012.1mb 69f 58f
9:06am 5 8 mph 1012.1mb 69f 57f
9:00am 5 7 mph 1012.2mb 69f 57f
8:54am 5 7 mph 1012.2mb 69f 57f
8:48am 6 7 mph 1012.2mb 69f 57f
8:42am 5 7 mph 1012.1mb 69f 56f
8:36am 6 8 mph 1012.1mb 69f 56f
8:30am 5 7 mph 1012.2mb 69f 56f
8:24am 6 7 mph 1012.1mb 68f 56f
8:18am 5 7 mph 1012.1mb 68f 56f
8:12am 3 7 mph 1012.1mb 68f 55f
8:06am 5 7 mph 1012.1mb 68f 55f
8:00am 6 7 mph 1012.1mb 68f 55f
7:54am 6 7 mph 1012.1mb 68f 55f
7:48am 5 7 mph 1012.2mb 68f 55f
7:42am 6 7 mph 1012.1mb 68f 55f
7:36am 6 7 mph 1012.1mb 68f 55f
7:30am 5 7 mph 1012mb 68f 55f
7:24am 5 6 mph 1011.9mb 68f 55f
7:18am 5 6 mph 1011.9mb 68f 55f
7:12am 5 7 mph 1011.8mb 68f 55f
7:06am 6 7 mph 1011.8mb 68f 55f
7:00am 5 7 mph 1011.7mb 68f 55f
6:54am 5 7 mph 1011.7mb 68f 55f
6:48am 5 7 mph 1011.7mb 69f 55f
6:42am 3 6 mph 1011.6mb 69f 56f
6:36am 3 5 mph 1011.6mb 69f 55f
6:30am 3 5 mph 1011.7mb 69f 55f
6:24am 2 3 mph 1011.6mb 69f 55f
6:18am 1 3 mph 1011.5mb 69f 55f
6:12am 1 5 mph 1011.5mb 69f 55f
6:06am 2 6 mph 1011.5mb 69f 55f
6:00am 5 6 mph 1011.4mb 69f 55f
5:54am 5 6 mph 1011.4mb 69f 55f
5:48am 5 7 mph 1011.3mb 69f 55f
5:42am 5 6 mph 1011.3mb 69f 55f
5:36am 5 7 mph 1011.3mb 69f 55f
5:30am 5 7 mph 1011.2mb 69f 55f
5:24am 5 6 mph 1011.2mb 69f 55f
5:18am 5 7 mph 1011.2mb 69f 55f
5:12am 6 7 mph 1011.2mb 70f 55f
5:06am 3 6 mph 1011.2mb 70f 56f
5:00am 3 7 mph 1011.2mb 70f 55f
4:54am 3 6 mph 1011.2mb 70f 55f
4:48am 3 6 mph 1011.1mb 70f 55f
4:42am 3 6 mph 1011.2mb 70f 55f
4:36am 6 7 mph 1011.1mb 70f 55f
4:30am 6 7 mph 1011.2mb 70f 55f
4:24am 5 7 mph 1011.2mb 70f 55f
4:18am 6 7 mph 1011.1mb 70f 55f
4:12am 6 8 mph 1011.1mb 70f 55f
4:06am 5 6 mph 1011.1mb 70f 55f
4:00am 2 5 mph 1011.1mb 70f 55f
3:54am 5 6 mph 1011.2mb 70f 55f
3:48am 5 6 mph 1011.2mb 70f 55f
3:42am 5 7 mph 1011.1mb 70f 55f
3:36am 5 6 mph 1011.1mb 70f 55f
3:30am 3 5 mph 1011.1mb 70f 55f
3:24am 3 5 mph 1011.1mb 70f 55f
3:18am 2 5 mph 1011.2mb 70f 55f
3:12am 5 6 mph 1011.2mb 70f 55f
3:06am 2 6 mph 1011.3mb 70f 55f
3:00am 3 6 mph 1011.4mb 70f 55f
2:54am 5 7 mph 1011.4mb 70f 55f
2:48am 5 7 mph 1011.3mb 70f 55f
2:42am 3 6 mph 1011.3mb 70f 55f
2:36am 5 7 mph 1011.3mb 70f 55f
2:30am 6 8 mph 1011.4mb 70f 56f
2:24am 3 7 mph 1011.4mb 70f 55f
2:18am 5 7 mph 1011.4mb 70f 56f
2:12am 5 7 mph 1011.4mb 70f 56f
2:06am 5 6 mph 1011.5mb 70f 56f
2:00am 5 6 mph 1011.5mb 70f 56f
1:54am 5 8 mph 1011.4mb 70f 56f
1:48am 6 8 mph 1011.3mb 70f 56f
1:42am 6 7 mph 1011.4mb 70f 56f
1:36am 5 8 mph 1011.3mb 70f 56f
1:30am 5 7 mph 1011.4mb 70f 56f
1:24am 5 7 mph 1011.4mb 70f 56f
1:18am 5 7 mph 1011.5mb 70f 56f
1:12am 6 7 mph 1011.5mb 70f 56f
1:06am 6 7 mph 1011.5mb 70f 56f
1:00am 6 8 mph 1011.6mb 70f 56f
12:54am 7 9 mph 1011.6mb 70f 56f
12:48am 7 10 mph 1011.7mb 70f 56f
12:42am 6 9 mph 1011.7mb 70f 56f
12:36am 7 9 mph 1011.8mb 70f 56f
12:30am  -  mph 1011.9mb 70f -
12:24am 6 8 mph 1011.9mb 70f 56f
12:18am 7 8 mph 1011.9mb 70f 56f
12:12am 5 8 mph 1011.9mb 70f 57f
12:06am 5 7 mph 1011.9mb 70f 57f
12:00am 5 7 mph 1011.9mb 70f 57f
Thu 07/28 11:54pm 5 7 mph 1011.9mb 70f 57f
11:48pm 5 7 mph 1012mb 70f -
11:42pm 3 7 mph 1012mb 70f -
11:36pm 5 7 mph 1012mb 70f -
11:30pm 7 9 mph 1012mb 70f 57f
11:24pm 6 7 mph 1012mb 70f 57f
11:18pm 5 7 mph 1012.1mb 70f 57f
11:12pm 5 6 mph 1012.1mb 70f 57f
11:06pm 3 6 mph 1012.1mb 70f 57f
11:00pm 5 7 mph 1012.2mb 70f 57f
10:54pm 5 6 mph 1012.2mb 70f 57f
10:48pm 6 7 mph 1012.2mb 70f -
10:42pm  -  mph 1012.3mb 70f -
10:36pm 5 7 mph 1012.3mb 69f -
10:30pm 5 8 mph 1012.3mb 69f 57f
10:24pm 6 10 mph 1012.3mb 69f 57f
10:18pm 7 9 mph 1012.3mb 69f 57f
10:12pm 8 10 mph 1012.3mb 69f 56f
10:06pm 6 9 mph 1012.2mb 69f 57f
10:00pm  -  mph 1012.1mb 69f -
9:54pm 8 10 mph 1012.1mb 69f 57f
9:48pm 6 9 mph 1012mb 69f 57f
9:42pm 8 10 mph 1012mb 69f 56f
9:36pm 8 10 mph 1011.9mb 69f 56f
9:30pm 7 9 mph 1011.9mb 69f 56f
9:24pm 8 9 mph 1011.8mb 69f 57f
9:18pm 7 9 mph 1011.8mb 69f 56f
9:12pm 7 8 mph 1011.7mb 69f 57f
9:06pm 8 9 mph 1011.7mb 69f 56f
9:00pm 7 10 mph 1011.6mb 69f 57f
8:54pm 8 9 mph 1011.6mb 69f 57f
8:48pm 7 9 mph 1011.5mb 69f 57f
8:42pm 8 10 mph 1011.5mb 69f 57f
8:36pm 8 10 mph 1011.5mb 69f 57f
8:30pm 7 10 mph 1011.4mb 69f 57f
8:24pm 8 11 mph 1011.5mb 69f 58f
8:18pm  -  mph 1011.5mb 69f -
8:12pm  -  mph 1011.4mb 69f -
8:06pm  -  mph 1011.4mb 69f -
8:00pm 8 10 mph - 69f -
7:54pm 8 9 mph - 69f -
7:48pm 7 8 mph 1011.3mb 69f -
7:42pm 7 9 mph 1011.2mb 69f -
7:36pm 6 9 mph 1011.2mb 69f -
7:30pm 7 10 mph - - -
7:24pm 9 11 mph - - -
7:18pm  -  mph - 69f 61f
7:12pm  -  mph - 69f 61f
7:06pm  -  mph - 69f 62f
7:00pm  -  mph 1011mb - -
6:54pm  -  mph 1011mb - -
6:48pm 7 10 mph 1010.9mb 70f -
6:42pm 7 10 mph 1010.9mb 70f -
6:36pm 7 9 mph 1010.9mb 70f -
6:30pm 6 9 mph 1011mb - -
6:24pm 7 13 mph 1011mb - -
6:18pm 8 13 mph - 70f -
6:12pm 10 14 mph - 70f -
6:06pm 9 13 mph - 71f -
6:00pm  -  mph - 71f 63f
5:54pm  -  mph - 71f 64f
5:48pm 7 11 mph 1011.2mb 71f -
5:42pm 7 10 mph 1011.3mb 71f -
5:36pm 7 11 mph 1011.3mb 71f -
5:30pm 8 11 mph 1011.3mb 71f -
5:24pm 9 11 mph 1011.3mb 71f -
5:18pm 8 10 mph 1011.3mb 71f -
5:12pm 8 11 mph 1011.4mb 71f -
5:06pm 9 13 mph 1011.4mb 71f -
5:00pm  -  mph - 71f 64f
4:54pm  -  mph - 71f 65f
4:48pm 6 11 mph 1011.5mb - -
4:42pm 7 10 mph 1011.5mb - -
4:36pm 7 10 mph 1011.5mb - -
4:30pm 7 10 mph - - -
4:24pm 8 11 mph - - -
4:18pm 8 11 mph - 70f -
4:12pm 7 10 mph - 70f -
4:06pm 7 10 mph - 70f -
4:00pm  -  mph - 70f -
3:54pm  -  mph - 70f -
3:48pm  -  mph - 70f -
3:42pm  -  mph - 70f -
3:36pm  -  mph - 69f -
3:30pm 8 11 mph 1012.1mb 69f -
3:24pm 7 11 mph 1012.1mb 69f -
3:18pm 6 11 mph 1012.2mb 69f 66f
3:12pm 8 13 mph 1012.3mb 69f 66f
3:06pm 8 11 mph 1012.3mb 69f 66f
3:00pm 8 11 mph 1012.3mb 69f -
2:54pm 8 14 mph 1012.4mb 69f -
2:48pm 9 13 mph - 69f 66f
2:42pm 9 11 mph - 69f 66f
2:36pm 9 11 mph - 69f 67f
2:30pm 8 10 mph 1012.4mb 69f 67f
2:24pm 8 11 mph 1012.4mb 69f 67f
2:18pm 8 10 mph 1012.5mb 69f 67f
2:12pm 8 11 mph 1012.5mb 69f 67f
2:06pm 6 11 mph 1012.5mb 69f 67f
2:00pm 8 10 mph 1012.6mb 69f 67f
1:54pm 7 9 mph 1012.6mb 69f 67f
1:48pm 7 10 mph 1012.7mb 69f 67f
1:42pm 6 9 mph 1012.7mb 69f 67f
1:36pm 7 9 mph 1012.7mb 69f 66f
1:30pm 7 9 mph 1012.8mb 69f 67f
1:24pm 7 8 mph 1012.8mb 69f 66f
1:18pm 7 9 mph 1012.9mb 69f 66f
1:12pm 7 9 mph 1012.9mb 69f 66f
1:06pm 7 9 mph 1013mb 69f 65f
1:00pm 7 8 mph 1013.1mb 69f 65f
12:54pm 7 9 mph 1013.2mb 69f 65f
12:48pm 7 9 mph 1013.3mb 69f 64f
12:42pm 7 9 mph 1013.3mb 69f 64f
12:36pm 6 9 mph 1013.3mb 69f 64f
12:30pm 7 8 mph 1013.4mb 69f 64f
12:24pm 6 8 mph 1013.4mb 69f 63f
12:18pm 6 8 mph 1013.4mb 69f 63f
12:12pm 6 8 mph 1013.5mb 69f 64f
12:06pm 6 8 mph 1013.5mb 69f 64f
12:00pm 7 9 mph 1013.5mb 69f 63f
11:54am 7 9 mph 1013.6mb 69f 63f
11:48am 7 9 mph 1013.5mb 69f 63f
11:42am 6 9 mph 1013.5mb 69f 64f
11:36am 6 8 mph 1013.6mb 69f 63f
11:30am 6 7 mph 1013.6mb 69f 63f
11:24am 6 8 mph 1013.7mb 69f 63f
11:18am 6 8 mph 1013.7mb 69f 63f
11:12am 6 8 mph 1013.7mb 69f 62f
11:06am 6 8 mph 1013.6mb 69f 62f
11:00am 5 8 mph 1013.6mb 69f 62f
10:54am 5 7 mph 1013.6mb 69f 62f
10:48am 6 7 mph 1013.5mb 69f 60f
10:42am 5 7 mph 1013.6mb 69f 61f
10:36am 6 7 mph 1013.7mb 69f 61f
10:30am 3 6 mph 1013.8mb 69f 60f
10:24am 2 6 mph 1013.8mb 69f 60f
10:18am 5 6 mph 1013.8mb 69f 59f
10:12am 3 6 mph 1013.8mb 69f 59f
10:06am 5 6 mph 1013.9mb 69f 59f
10:00am 3 5 mph 1013.9mb 69f 59f
9:54am 3 5 mph 1013.8mb 68f 59f
9:48am 3 6 mph 1013.8mb 68f 59f
9:42am 2 6 mph 1013.8mb 69f 58f
9:36am 3 6 mph 1013.8mb 69f 58f
9:30am 6 7 mph 1013.8mb 69f 57f
9:24am 6 7 mph 1013.8mb 69f 58f
9:18am 5 7 mph 1013.9mb 69f 57f
9:12am 6 7 mph 1014mb 69f 57f
9:06am 5 7 mph 1014.1mb 69f 57f
9:00am 5 8 mph 1014.2mb 69f 56f
8:54am 5 8 mph 1014.1mb 69f 56f
8:48am 6 8 mph 1014.1mb 69f 56f
8:42am 5 6 mph 1014mb 69f 56f
8:36am 5 6 mph 1014mb 69f 56f
8:30am 3 6 mph 1014mb 69f 55f
8:24am 5 7 mph 1014mb 69f 55f
8:18am 2 8 mph 1014mb 69f 55f
8:12am 5 7 mph 1014mb 69f 55f
8:06am 3 6 mph 1013.9mb 69f 55f
8:00am 3 7 mph 1013.9mb 68f 55f
7:54am 3 6 mph 1013.8mb 68f 55f
7:48am 5 7 mph 1013.7mb 68f 55f
7:42am 6 8 mph 1013.7mb 68f 55f
7:36am 5 8 mph 1013.6mb 68f 54f
7:30am 6 7 mph 1013.7mb 68f 54f
7:24am 5 7 mph 1013.6mb 68f 54f
7:18am 6 7 mph 1013.5mb 68f 55f
7:12am 3 6 mph 1013.5mb 68f 54f
7:06am 3 6 mph 1013.5mb 68f 54f
7:00am 3 6 mph 1013.5mb 68f 55f
6:54am 5 6 mph 1013.5mb 68f 54f
6:48am 2 5 mph 1013.4mb 67f 54f
6:42am 3 7 mph 1013.3mb 67f 54f
6:36am 3 5 mph 1013.2mb 67f 54f
6:30am 6 7 mph 1013.2mb 68f 54f
6:24am 3 7 mph 1013.1mb 68f 54f
6:18am 6 7 mph 1013mb 68f 54f
6:12am 5 7 mph 1013mb 68f 55f
6:06am 3 6 mph 1013mb 68f 55f
6:00am 5 7 mph 1013mb 68f 55f
5:54am 5 7 mph 1013.1mb 68f 55f
5:48am 5 7 mph 1013mb 69f 55f
5:42am 5 7 mph 1013mb 69f 55f
5:36am 5 7 mph 1013mb 69f 55f
5:30am 3 6 mph 1012.9mb 69f 55f
5:24am 5 7 mph 1012.9mb 69f 55f
5:18am 5 6 mph 1012.8mb 69f 55f
5:12am 5 8 mph 1012.9mb 69f 55f
5:06am 5 6 mph 1012.9mb 69f 55f
5:00am 3 7 mph 1013mb 69f 55f
4:54am 5 7 mph 1013mb 69f 55f
4:48am 5 6 mph 1012.9mb 70f 55f
4:42am 3 6 mph 1012.9mb 70f 55f
4:36am 3 6 mph 1012.9mb 70f 55f
4:30am 3 6 mph 1012.9mb 70f 55f
4:24am 5 6 mph 1013mb 70f 55f
4:18am 3 6 mph 1012.9mb 70f 55f
4:12am 5 6 mph 1012.9mb 70f 55f
4:06am 3 7 mph 1012.9mb 70f 55f
4:00am 5 6 mph 1012.9mb 70f 55f
3:54am 5 6 mph 1012.9mb 70f 55f
3:48am 5 6 mph 1012.8mb 70f 55f
3:42am 5 6 mph 1012.9mb 70f 55f
3:36am 5 6 mph 1012.8mb 71f 55f
3:30am 3 5 mph 1012.9mb 71f 56f
3:24am 3 6 mph 1012.9mb 71f 56f
3:18am 3 6 mph 1012.8mb 71f 56f
3:12am 3 6 mph 1012.9mb 71f 55f
3:06am 3 6 mph 1012.9mb 71f 55f
3:00am 3 5 mph 1012.9mb 71f 55f
2:54am 3 6 mph 1013mb 71f 55f
2:48am 5 7 mph 1013mb 71f 55f
2:42am 5 6 mph 1013mb 71f 55f
2:36am 2 5 mph 1013mb 71f 55f
2:30am 3 6 mph 1013mb 71f 55f
2:24am 3 5 mph 1013mb 71f 55f
2:18am 3 5 mph 1013mb 71f 55f
2:12am 3 6 mph 1013.1mb 71f 55f
2:06am 2 5 mph 1013mb 71f 55f
2:00am 3 6 mph 1013.1mb 71f 55f
1:54am 2 6 mph 1013mb 71f 55f
1:48am 3 6 mph 1013.1mb 71f 55f
1:42am 3 6 mph 1013.1mb 71f 55f
1:36am 5 7 mph 1013.1mb 71f 55f
1:30am  -  mph 1013.1mb 71f -
1:24am 5 6 mph 1013.2mb 71f 55f
1:18am 6 7 mph 1013.2mb 71f 56f
1:12am 6 8 mph 1013.2mb 71f 55f
1:06am 6 8 mph 1013.3mb 71f 55f
1:00am 7 9 mph 1013.3mb 71f 56f
12:54am 7 10 mph 1013.4mb 71f 56f
12:48am 7 9 mph 1013.4mb 71f 56f
12:42am 6 9 mph 1013.5mb 71f 56f
12:36am 7 9 mph 1013.5mb 71f 56f
12:30am 6 7 mph 1013.5mb 71f 55f
12:24am 3 8 mph 1013.6mb 71f 55f
12:18am 6 8 mph 1013.6mb 71f 55f
12:12am 6 9 mph 1013.5mb 71f 55f
12:06am 6 10 mph 1013.5mb 71f 55f
12:00am 8 13 mph 1013.6mb 71f 55f
Wed 07/27 11:54pm 10 13 mph 1013.5mb 71f 55f
11:48pm 8 11 mph 1013.5mb 71f -
11:42pm 9 13 mph 1013.4mb 71f -
11:36pm 9 11 mph 1013.5mb 71f -
11:30pm 8 11 mph 1013.5mb 71f 56f
11:24pm 9 11 mph 1013.5mb 71f 56f
11:18pm 9 11 mph 1013.5mb 71f 56f
11:12pm 8 10 mph 1013.5mb 71f 56f
11:06pm 8 10 mph 1013.5mb 71f 56f
11:00pm 7 10 mph 1013.5mb 71f 56f
10:54pm 8 10 mph 1013.5mb 71f 57f
10:48pm 6 9 mph 1013.5mb 71f -
10:42pm 6 8 mph 1013.6mb 71f -
10:36pm 6 8 mph 1013.6mb 71f -
10:30pm 6 7 mph 1013.6mb 71f 57f
10:24pm 5 8 mph 1013.6mb 71f 57f
10:18pm 6 8 mph 1013.6mb 70f 57f
10:12pm 7 8 mph 1013.5mb 70f 57f
10:06pm 6 8 mph 1013.5mb 70f 57f
10:00pm 6 7 mph 1013.4mb 70f 57f
9:54pm 6 9 mph 1013.4mb 70f 57f
9:48pm 7 9 mph 1013.3mb 70f 57f
9:42pm 6 8 mph 1013.2mb 70f 58f
9:36pm 6 10 mph 1013.2mb 70f 58f
9:30pm 9 11 mph 1013.1mb 70f 58f
9:24pm 8 11 mph 1013mb 70f 58f
9:18pm 7 9 mph 1013mb 70f 58f
9:12pm 6 10 mph 1012.9mb 70f 58f
9:06pm 8 9 mph 1012.8mb 69f 58f
9:00pm 7 9 mph 1012.8mb 69f 58f
8:54pm 7 9 mph 1012.8mb 69f 58f
8:48pm 7 10 mph 1012.8mb 69f 58f
8:42pm 9 10 mph 1012.7mb 69f 58f
8:36pm 9 11 mph 1012.7mb 69f 58f
8:30pm 9 11 mph 1012.7mb 69f 58f
8:24pm 8 10 mph 1012.7mb 69f 58f
8:18pm 8 11 mph - 69f -
8:12pm 8 9 mph - 69f -
8:06pm 8 9 mph - 69f -
8:00pm 7 9 mph 1012.6mb 69f -
7:54pm 8 9 mph 1012.5mb 69f -
7:48pm 7 10 mph - - -
7:42pm 8 10 mph - - -
7:36pm 7 8 mph - - -
7:30pm 7 9 mph - - -
7:24pm 7 10 mph - - -
7:18pm 8 9 mph - 69f -
7:12pm 7 9 mph - 69f -
7:06pm 8 11 mph - 69f -
7:00pm  -  mph - 69f -
6:54pm  -  mph - 69f -
6:48pm 9 11 mph - - -
6:42pm 8 11 mph - - -
6:36pm 8 13 mph - - -
6:30pm  -  mph 1012.1mb - -
6:24pm  -  mph 1012.1mb - -
6:18pm 10 13 mph - - -
6:12pm 8 13 mph - - -
6:06pm 10 13 mph - - -
6:00pm  -  mph - 70f -
5:54pm  -  mph - 70f -
5:48pm 8 11 mph 1012mb - -
5:42pm 7 11 mph 1012mb - -
5:36pm 10 14 mph 1011.9mb - -
5:30pm  -  mph 1012mb 70f -
5:24pm  -  mph 1012mb 70f -
5:18pm  -  mph - 70f 66f
5:12pm  -  mph - 70f 67f
5:06pm  -  mph - 70f 67f
5:00pm  -  mph - 70f 67f
4:54pm  -  mph - 70f 67f
4:48pm  -  mph 1012mb - -
4:42pm  -  mph 1012mb - -
4:36pm  -  mph 1012.1mb - -
4:30pm 7 9 mph - 70f -
4:24pm 6 8 mph - 70f -
4:18pm  -  mph - 70f 68f
4:12pm  -  mph - 70f 68f
4:06pm  -  mph - 70f 69f
4:00pm  -  mph - 70f 69f
3:54pm  -  mph - 70f 69f
3:48pm  -  mph - 70f 70f
3:42pm  -  mph - 70f 69f
3:36pm  -  mph - 69f 70f
3:30pm 7 9 mph - - -
3:24pm 6 8 mph - - -
3:18pm 6 8 mph 1012.3mb 69f 72f
3:12pm 6 8 mph 1012.4mb 69f 71f
3:06pm 6 8 mph 1012.5mb 69f 71f
3:00pm  -  mph - 69f -
2:54pm  -  mph - 69f -
2:48pm 5 7 mph - 69f 73f
2:42pm 3 6 mph - 69f 74f
2:36pm 3 8 mph - 69f 74f
2:30pm 5 7 mph 1012.6mb 69f 74f
2:24pm 3 7 mph 1012.6mb 69f 74f
2:18pm 5 8 mph 1012.7mb 69f 73f
2:12pm 5 7 mph 1012.7mb 69f 72f
2:06pm 3 7 mph 1012.8mb 69f 73f
2:00pm 5 9 mph 1012.9mb 69f 73f
1:54pm 6 9 mph 1012.9mb 69f 71f
1:48pm 6 9 mph 1012.9mb 69f 72f
1:42pm 6 8 mph 1012.9mb 69f 71f
1:36pm 5 7 mph 1012.9mb 69f 72f
1:30pm 3 8 mph 1012.9mb 69f 71f
1:24pm 5 9 mph 1013mb 69f 70f
1:18pm 6 8 mph 1013mb 69f 70f
1:12pm 5 8 mph 1012.9mb 69f 71f
1:06pm 5 8 mph 1013mb 69f 70f
1:00pm 6 8 mph 1013.1mb 69f 69f
12:54pm 6 10 mph 1013.1mb 69f 69f
12:48pm 5 10 mph 1013.1mb 69f 69f
12:42pm 6 9 mph 1013.1mb 69f 69f
12:36pm 6 8 mph 1013.1mb 69f 69f
12:30pm 6 9 mph 1013.1mb 69f 69f
12:24pm 6 8 mph 1013.1mb 69f 69f
12:18pm 6 9 mph 1013.1mb 69f 69f
12:12pm 6 9 mph 1013.2mb 69f 69f
12:06pm 6 8 mph 1013.2mb 69f 69f
12:00pm 6 7 mph 1013.3mb 69f 68f
11:54am 6 8 mph 1013.2mb 69f 67f
11:48am 7 9 mph 1013.3mb 69f 67f
11:42am 7 9 mph 1013.4mb 69f 66f
11:36am 6 9 mph 1013.4mb 69f 67f
11:30am 7 8 mph 1013.4mb 69f 66f
11:24am 7 9 mph 1013.4mb 69f 66f
11:18am 6 7 mph 1013.3mb 69f 66f
11:12am 6 8 mph 1013.3mb 69f 66f
11:06am 6 8 mph 1013.2mb 69f 66f
11:00am 6 7 mph 1013.2mb 69f 66f
10:54am 5 8 mph 1013.3mb 68f 65f
10:48am 6 7 mph 1013.2mb 68f 65f
10:42am 6 7 mph 1013.2mb 68f 64f
10:36am 5 6 mph 1013.2mb 68f 64f
10:30am 5 6 mph 1013.2mb 68f 64f
10:24am 5 6 mph 1013.3mb 69f 64f
10:18am 5 6 mph 1013.3mb 69f 64f
10:12am 5 6 mph 1013.2mb 69f 63f
10:06am 5 6 mph 1013.2mb 68f 63f
10:00am 5 6 mph 1013.2mb 68f 63f
9:54am 5 6 mph 1013.2mb 68f 63f
9:48am 2 7 mph 1013.2mb 68f 64f
9:42am 1 3 mph 1013.2mb 68f 65f
9:36am 1 5 mph 1013.2mb 68f 64f
9:30am 2 6 mph 1013.2mb 68f 64f
9:24am 2 6 mph 1013.1mb 68f 63f
9:18am 3 6 mph 1013.1mb 68f 63f
9:12am 5 6 mph 1013.1mb 69f 63f
9:06am 3 6 mph 1013.1mb 69f 63f
9:00am 3 6 mph 1013.1mb 69f 62f
8:54am 3 6 mph 1013mb 69f 62f
8:48am 2 5 mph 1013mb 69f 63f
8:42am 3 6 mph 1013mb 68f 62f
8:36am 3 6 mph 1013mb 68f 62f
8:30am 3 5 mph 1013mb 68f 62f
8:24am 2 5 mph 1013mb 68f 62f
8:18am 3 5 mph 1013mb 68f 61f
8:12am 1 3 mph 1013mb 68f 61f
8:06am 2 5 mph 1013mb 68f 60f
8:00am 3 5 mph 1013mb 68f 60f
7:54am 3 6 mph 1012.9mb 69f 60f
7:48am 2 5 mph 1012.9mb 68f 60f
7:42am 3 5 mph 1012.9mb 68f 60f
7:36am 3 5 mph 1012.8mb 68f 59f
7:30am 2 5 mph 1012.8mb 68f 59f
7:24am 3 5 mph 1012.7mb 68f 60f
7:18am 1 5 mph 1012.6mb 69f 60f
7:12am 3 5 mph 1012.6mb 69f 59f
7:06am 5 6 mph 1012.6mb 69f 59f
7:00am 5
mph
1012.6mb 69f 58f
6:54am 3 6 mph 1012.5mb 69f 58f
6:48am 3 6 mph 1012.5mb 69f 58f
6:42am 5 6 mph 1012.5mb 69f 58f
6:36am 5 8 mph 1012.4mb 69f 58f
6:30am 5 7 mph 1012.4mb 69f 58f
6:24am 5 7 mph 1012.3mb 69f 58f
6:18am 6 8 mph 1012.2mb 69f 58f
6:12am 6 8 mph 1012.1mb 69f 58f
6:06am 7 9 mph 1012mb 69f 58f
6:00am 5 7 mph 1011.9mb 69f 58f
5:54am 5 7 mph 1011.9mb 69f 58f
5:48am 5 7 mph 1011.9mb 69f 58f
5:42am 5 7 mph 1011.8mb 69f 58f
5:36am 6 7 mph 1011.7mb 68f 58f
5:30am 6 7 mph 1011.7mb 68f 58f
5:24am 3 6 mph 1011.7mb 68f 58f
5:18am 6 8 mph 1011.6mb 68f 58f
5:12am 6 7 mph 1011.7mb 68f 59f
5:06am 6 8 mph 1011.8mb 68f 59f
5:00am 5 7 mph 1011.7mb 68f 59f
4:54am 6
mph
1011.8mb 68f 59f
4:48am 6 8 mph 1011.7mb 68f 59f
4:42am 6 7 mph 1011.7mb 68f 58f
4:36am 6 7 mph 1011.7mb 68f 58f
4:30am 3 6 mph 1011.8mb 68f 59f
4:24am 3 6 mph 1011.8mb 68f 59f
4:18am 3 5 mph 1011.7mb 68f 59f
4:12am 2 5 mph 1011.8mb 68f 59f
4:06am 2 5 mph 1011.7mb 68f 59f
4:00am 3 5 mph 1011.7mb 68f 59f
3:54am 2 5 mph 1011.7mb 68f 60f
3:48am 3 7 mph 1011.7mb 68f 60f
3:42am 5 6 mph 1011.8mb 68f 60f
3:36am 5 6 mph 1011.8mb 68f 59f
3:30am 3 5 mph 1011.8mb 68f 60f
3:24am 5 6 mph 1011.7mb 68f 59f
3:18am 3 5 mph 1011.7mb 69f 60f
3:12am 3 6 mph 1011.7mb 69f 59f
3:06am 2 5 mph 1011.7mb 69f 59f
3:00am 3 6 mph 1011.7mb 69f 59f
2:54am 5 6 mph 1011.6mb 69f 59f
2:48am 5 7 mph 1011.6mb 69f 59f
2:42am 5 7 mph 1011.6mb 69f 59f
2:36am 5 8 mph 1011.5mb 70f 59f
2:30am 7 8 mph 1011.5mb 70f 59f
2:24am 7 8 mph 1011.5mb 70f 59f
2:18am 5 8 mph 1011.5mb 70f 59f
2:12am 5 8 mph 1011.5mb 70f 60f
2:06am 6 7 mph 1011.4mb 70f 60f
2:00am 5 6 mph 1011.4mb 70f 61f
1:54am 2 5 mph 1011.5mb 70f 60f
1:48am 5 7 mph 1011.6mb 70f 60f
1:42am 5 7 mph 1011.7mb 70f 59f
1:36am 5 7 mph 1011.7mb 70f 59f
1:30am 6 7 mph 1011.8mb 70f 59f
1:24am 6 7 mph 1011.9mb 70f 60f
1:18am 5 7 mph 1011.9mb 70f 60f
1:12am 6 7 mph 1011.9mb 70f 60f
1:06am 5 8 mph 1011.9mb 70f 60f
1:00am 6 8 mph 1011.9mb 70f 60f
12:54am 6 8 mph 1011.8mb 70f 60f
12:48am 6 7 mph 1011.7mb 70f 60f
12:42am 6 7 mph 1011.8mb 70f 60f
12:36am 6
mph
1011.7mb 70f 60f
12:30am 6
mph
1011.8mb 70f 60f
12:24am 3 5 mph 1011.8mb 70f 60f
12:18am 2 5 mph 1011.8mb 70f 61f
12:12am 3 6 mph 1011.7mb 70f 60f
12:06am 6 7 mph 1011.7mb 70f 60f
12:00am 3 5 mph 1011.7mb 70f 60f
Tue 07/26 11:54pm 3 5 mph 1011.8mb 70f 60f
11:48pm 3
mph
1011.8mb 70f 60f
11:42pm 3 5 mph 1011.8mb 70f 60f
11:36pm 3 5 mph 1011.7mb 70f 60f
11:30pm 3 6 mph 1011.8mb 70f 60f
11:24pm 3 5 mph 1011.8mb 70f 60f
11:18pm 3 6 mph 1011.8mb 70f 60f
11:12pm 5 7 mph 1011.8mb 70f 60f
11:06pm 5 6 mph 1011.8mb 70f 60f
11:00pm 3 5 mph 1011.9mb 70f 61f
10:54pm 2 6 mph 1011.9mb 70f 61f
10:48pm 5 6 mph 1011.8mb 70f 61f
10:42pm 3 5 mph 1011.8mb 70f 61f
10:36pm 3 5 mph 1011.9mb 70f 61f
10:30pm 3 5 mph 1011.9mb 70f 60f
10:24pm 3 6 mph 1011.9mb 70f 60f
10:18pm 5 6 mph 1011.9mb 70f 61f
10:12pm 5 6 mph 1011.9mb 70f 62f
10:06pm 3 6 mph 1011.8mb 70f 62f
10:00pm 5 6 mph 1011.7mb 70f 62f
9:54pm 5 6 mph 1011.6mb 70f 62f
9:48pm 5 7 mph 1011.5mb 70f 62f
9:42pm 5 7 mph 1011.5mb 70f 63f
9:36pm 3 5 mph 1011.4mb 70f 64f
9:30pm 3 6 mph 1011.4mb 70f 64f
9:24pm 3 6 mph 1011.3mb 70f 64f
9:18pm 5 6 mph 1011.3mb 69f 63f
9:12pm 6 7 mph 1011.2mb 69f 64f
9:06pm 5 6 mph 1011.2mb 69f 64f
9:00pm 2 5 mph 1011.2mb 69f 64f
8:54pm 3 6 mph 1011.1mb 69f 64f
8:48pm 5 7 mph 1011.1mb 69f 64f
8:42pm 3 5 mph 1011mb 69f 65f
8:36pm 2 5 mph 1011mb 69f 65f
8:30pm 2 5 mph 1011mb 69f 65f
8:24pm 2 5 mph 1011mb 69f 66f
8:18pm 2 3 mph 1010.9mb 69f -
8:12pm 2 6 mph 1010.8mb 69f -
8:06pm 6 8 mph 1010.8mb 68f -
8:00pm 6 9 mph - 68f -
7:54pm 7 10 mph - 68f -
7:48pm 5 8 mph 1010.7mb 68f -
7:42pm 6 7 mph 1010.6mb 68f -
7:36pm 6 7 mph 1010.6mb 68f -
7:30pm 5 8 mph - 68f 70f
7:24pm 5 7 mph - 68f 70f
7:18pm 5 6 mph 1010.4mb 68f 71f
7:12pm 5 6 mph 1010.4mb 68f 72f
7:06pm 2 6 mph 1010.4mb 68f 74f
7:00pm  -  mph - 68f 74f
6:54pm  -  mph - 68f 74f
6:48pm 5 6 mph - - -
6:42pm 3 6 mph - - -
6:36pm 3 6 mph - - -
6:30pm 3 7 mph - 68f -
6:24pm 5 7 mph - 68f -
6:18pm 6 7 mph - 68f 74f
6:12pm 5 8 mph - 68f 74f
6:06pm 6 9 mph - 68f 75f
6:00pm  -  mph - 69f 76f
5:54pm  -  mph - 69f 77f
5:48pm 6 9 mph 1010.5mb - -
5:42pm 6 9 mph 1010.5mb - -
5:36pm 3 8 mph 1010.5mb - -
5:30pm 5 7 mph - 69f 78f
5:24pm 5 9 mph - 69f 78f
5:18pm  -  mph - 69f 78f
5:12pm  -  mph - 69f 77f
5:06pm  -  mph - 70f 75f
5:00pm  -  mph - 70f -
4:54pm  -  mph - 70f -
4:48pm  -  mph - 70f -
4:42pm  -  mph - 70f -
4:36pm  -  mph - 70f -
4:30pm 3 7 mph - 70f 78f
4:24pm 5 8 mph - 70f 78f
4:18pm 5 9 mph 1010.9mb 70f -
4:12pm 6 9 mph 1011mb 70f -
4:06pm 6 8 mph 1011.2mb 70f -
4:00pm  -  mph 1011.2mb 70f -
3:54pm  -  mph 1011.3mb 70f -
3:48pm  -  mph 1011.4mb 70f -
3:42pm  -  mph 1011.5mb 70f -
3:36pm  -  mph 1011.5mb 70f -
3:30pm 10 14 mph 1011.6mb 69f 76f
3:24pm 7 13 mph 1011.7mb 69f 77f
3:18pm 8 13 mph 1011.7mb 69f -
3:12pm 8 14 mph 1011.7mb 69f -
3:06pm 11 14 mph 1011.8mb 69f -
3:00pm  -  mph - 69f 76f
2:54pm  -  mph - 68f 75f
2:48pm 9 11 mph - 68f -
2:42pm 6 9 mph - 68f -
2:36pm 7 10 mph - 68f -
2:30pm 6 8 mph 1012.1mb 67f 75f
2:24pm 6 8 mph 1012.1mb 67f 74f
2:18pm 6 9 mph 1012.1mb 67f 75f
2:12pm 5 8 mph 1012.2mb 67f 76f
2:06pm 6 8 mph 1012.2mb 67f 77f
2:00pm 5 8 mph 1012.3mb 67f 78f
1:54pm 7 9 mph 1012.2mb 67f 77f
1:48pm 5 9 mph 1012.2mb 67f 77f
1:42pm 5 10 mph 1012.3mb 67f 76f
1:36pm 7 9 mph 1012.3mb 68f 74f
1:30pm  -  mph 1012.4mb 68f -
1:24pm 6 8 mph 1012.5mb 68f 75f
1:18pm 5 9 mph 1012.5mb 68f 74f
1:12pm 6 9 mph 1012.6mb 68f 74f
1:06pm 6 9 mph 1012.6mb 68f 73f
1:00pm 5 8 mph 1012.6mb 68f 74f
12:54pm 5 7 mph 1012.7mb 68f 73f
12:48pm 6 8 mph 1012.7mb 68f 73f
12:42pm 6 7 mph 1012.8mb 68f 73f
12:36pm 5 7 mph 1012.8mb 68f 72f
12:30pm 6
mph
1012.9mb 68f 72f
12:24pm 3 6 mph 1012.9mb 69f 72f
12:18pm 2 6 mph 1012.9mb 69f 72f
12:12pm 3 5 mph 1013mb 69f 70f
12:06pm  -  2 mph 1013.1mb 69f 70f
12:00pm 1 2 mph 1013.2mb 69f 69f
11:54am 1 2 mph 1013.3mb 69f 69f
11:48am 3
mph
1013.3mb 69f 69f
11:42am 3
mph
1013.3mb 69f 68f
11:36am 2 3 mph 1013.3mb 69f 67f
11:30am 2 3 mph 1013.3mb 69f 67f
11:24am 3 5 mph 1013.4mb 69f 67f
11:18am 5 6 mph 1013.5mb 69f 66f
11:12am 5 7 mph 1013.5mb 69f 66f
11:06am 6 7 mph 1013.5mb 69f 66f
11:00am 3 6 mph 1013.4mb 69f 66f
10:54am 3 5 mph 1013.4mb 69f 66f
10:48am 3 6 mph 1013.4mb 69f 65f
10:42am 3 5 mph 1013.5mb 69f 65f
10:36am 3 5 mph 1013.6mb 69f 64f
10:30am 3 5 mph 1013.6mb 69f 64f
10:24am 3 5 mph 1013.7mb 69f 64f
10:18am 3 5 mph 1013.7mb 69f 64f
10:12am 3 5 mph 1013.7mb 69f 63f
10:06am 5
mph
1013.7mb 69f 63f
10:00am 3 5 mph 1013.7mb 69f 63f
9:54am 3 5 mph 1013.6mb 69f 63f
9:48am 3 5 mph 1013.7mb 69f 63f
9:42am 1 2 mph 1013.7mb 69f 64f
9:36am 2 5 mph 1013.7mb 69f 64f
9:30am 2 5 mph 1013.6mb 69f 64f
9:24am 3 5 mph 1013.7mb 69f 63f
9:18am 2 3 mph 1013.7mb 69f 62f
9:12am 2 5 mph 1013.8mb 69f 62f
9:06am  -  mph 1013.8mb 69f -
9:00am 5 7 mph 1013.8mb 69f 61f
8:54am 6 7 mph 1013.8mb 69f 61f
8:48am 6 7 mph 1013.8mb 69f 60f
8:42am 5 6 mph 1013.8mb 69f 60f
8:36am 3 6 mph 1013.8mb 69f 60f
8:30am 3 6 mph 1013.7mb 68f 60f
8:24am 3 6 mph 1013.7mb 68f 60f
8:18am 5 7 mph 1013.7mb 68f 60f
8:12am 5 6 mph 1013.7mb 68f 59f
8:06am 3 6 mph 1013.6mb 68f 60f
8:00am 5 6 mph 1013.6mb 68f 59f
7:54am 3 5 mph 1013.6mb 68f 59f
7:48am 3 6 mph 1013.5mb 68f 59f
7:42am 5 6 mph 1013.5mb 68f 59f
7:36am 5 6 mph 1013.3mb 69f 59f
7:30am 3 5 mph 1013.3mb 69f 59f
7:24am 3 6 mph 1013.3mb 69f 59f
7:18am 3 5 mph 1013.3mb 69f 59f
7:12am 3 5 mph 1013.3mb 69f 59f
7:06am 3 5 mph 1013.2mb 69f 59f
7:00am 2 3 mph 1013.2mb 69f 58f
6:54am 2 5 mph 1013.2mb 69f 59f
6:48am 3 5 mph 1013.2mb 69f 59f
6:42am 3 6 mph 1013.1mb 69f 58f
6:36am 5 6 mph 1013.1mb 69f 58f
6:30am 2 5 mph 1013.1mb 69f 58f
6:24am 5 6 mph 1013.1mb 69f 58f
6:18am 2 5 mph 1013mb 69f 58f
6:12am 2 5 mph 1013mb 69f 58f
6:06am 3 5 mph 1012.8mb 69f 58f
6:00am 2 3 mph 1012.8mb 69f 57f
5:54am 1 3 mph 1012.8mb 69f 57f
5:48am 1 3 mph 1012.7mb 69f 57f
5:42am 1 2 mph 1012.6mb 69f 57f
5:36am 1 2 mph 1012.6mb 69f 57f
5:30am 2
mph
1012.6mb 68f 57f